{"data":{"norad_id":68607,"intl_designator":"2026-073F","name":"STARLINK-37246","alt_names":[],"object_type":"PAYLOAD","status":"ACTIVE","operator":null,"country":"US","launch_date":"2026-04-07","launch_site_code":"AFWTR","launch_vehicle":null,"mission":null,"orbit_class":"UNKNOWN","rcs_meters":null,"size_class":null,"mass_kg":null,"dimensions":null,"purposes":["comms"],"wikipedia_slug":null,"has_3d_model":false,"image_url":null,"decayed_at":null,"tle_current":{"epoch":"2026-09-18T01:55:48.027936Z","epoch_age_seconds":252999,"freshness":"STALE","line1":"1 68607U 26073F   26261.08041699  .00010446  00000+0  32545-3 0  9995","line2":"2 68607  97.2856  99.1822 0001183 116.6841 243.4523 15.33445270 25371","mean_motion":15.3344527,"eccentricity":0.0001183,"inclination_deg":97.2856,"raan_deg":99.1822,"arg_perigee_deg":116.6841,"mean_anomaly_deg":243.4523,"bstar":0.00032545,"rev_number":2537,"period_min":93.906188122384,"perigee_km":464.7327638786,"apogee_km":466.35197841782,"semimajor_km":6843.6793711482,"source":"CELESTRAK","updated_at":"2026-09-20T09:00:43.942372Z"}}}